Regional Weather Roundup
Issued by NWS

Home | Current Version | Previous Version | Graphics & Text | Print | Product List | Glossary On
Versions: 1 2 3 4 5 6 7 8 9 10 11 12 13 14 15 16 17 18 19 20 21 22 23 24 25 26 27
000
ASUS45 KBOU 262007
RWRCO

WEATHER ROUNDUP FOR COLORADO
NATIONAL WEATHER SERVICE DENVER/BOULDER CO
200 PM MDT SUN MAR 26 2017

NOTE: "FAIR" INDICATES FEW OR NO CLOUDS BELOW 12000 FEET WITH NO
SIGNIFICANT WEATHER AND/OR OBSTRUCTIONS TO VISIBILITY.

COZ001>005-013-030-031-262100-
...NORTHWEST COLORADO...

CITY           SKY/WX    TMP DP  RH WIND       PRES   REMARKS
CRAIG          PTSUNNY   48  25  40 VRB5      30.00F
HAYDEN         FAIR      46  27  46 SW12      30.00F
MEEKER         CLOUDY    48  29  47 SE8       30.01F
MOUNT WERNER   NOT AVBL
STEAMBOAT SPGS CLOUDY    39  31  72 CALM      30.01F
WALDEN         NOT AVBL
$$

COZ006>008-011-262100-
...WEST CENTRAL VALLEYS...

CITY           SKY/WX    TMP DP  RH WIND       PRES   REMARKS
GRAND JUNCTION FAIR      58  29  33 CALM      29.95F
MONTROSE       PTSUNNY   51  39  63 S14       30.00S
EAGLE          PTSUNNY   46  34  61 NW10      29.97S
RIFLE          FAIR      55  26  32 VRB7      29.96F
DELTA          FAIR      63  24  22 NW7       29.95F
NUCLA          FAIR      54  32  43 NW3       30.02F
$$

COZ017>023-064>068-262100-
...SOUTHWEST COLORADO...

CITY           SKY/WX    TMP DP  RH WIND       PRES   REMARKS
DURANGO        FAIR      52  29  41 VRB3G16   29.95F
CORTEZ         CLOUDY    54  35  48 NW12      29.99F
PAGOSA SPRINGS FAIR      45  31  57 S3        30.01S
TELLURIDE      NOT AVBL
WOLF CREEK PAS SNOW      27  27 100 SW14G21   30.12R VSB 1/4 WCI  15
$$

COZ009-010-012-014-032>034-037-058>063-262100-
...CENTRAL COLORADO...

CITY           SKY/WX    TMP DP  RH WIND       PRES   REMARKS
ASPEN          PTSUNNY   46  27  47 N12G26    29.96S
BUENA VISTA    FAIR      51  13  21 NW14      29.90R
COPPER MTN     NOT AVBL
BERTHOUD PASS  CLOUDY    19   9  63 NW28      30.01S WCI   1
COTTONWOOD PAS CLOUDY    52  10  19 NW8       29.96S
GUNNISON       FAIR      46  29  51 SW16      29.97R
KREMMLING      CLOUDY    46  32  57 N17G24    29.97S
LEADVILLE      CLOUDY    37  19  48 W15       29.97S
MONARCH PASS   LGT SNOW  27  23  86 W28G33    30.14R WCI  11
SALIDA         CLOUDY    51  29  41 CALM      29.97R
SUNLIGHT       FAIR      28  28 100 W8G21     30.09S WCI  20
WILKERSON PASS CLOUDY    32  28  86 E5        30.02S FOG     WCI  27
$$

COZ069>075-262100-
...SAN LUIS VALLEY/SANGRE DE CRISTO MOUNTAINS...

CITY           SKY/WX    TMP DP  RH WIND       PRES   REMARKS
ALAMOSA        CLOUDY    51  25  36 VRB5      29.91R
LA VETA PASS   NOT AVBL
SAGUACHE       PTSUNNY   54  23  30 NW22G32   29.92S
$$

COZ035-036-038>040-262100-
...NORTHERN COLORADO FRONT RANGE...

CITY           SKY/WX    TMP DP  RH WIND       PRES   REMARKS
DENVER INTL AP PTSUNNY   52  35  52 N10       29.91R
DMNS CITY PARK   N/A     51  34  52 NE5G17    29.91S
AURORA           N/A     50  34  54 NW6       29.91S
FRONT RANGE AP PTSUNNY   52  34  50 E5        29.91S
ERIE MUNI ARPT CLOUDY    52  35  52 NE7       29.91S
BOULDER MUN AP LGT RAIN  46  41  81 W3        29.91S
CENTENNIAL     PTSUNNY   49  32  52 E9G16     29.91R
BROOMFIELD     LGT RAIN  48  37  66 N9        29.92
FORT COLLINS   LGT RAIN  47  40  76 E12       29.92R
LONGMONT       CLOUDY    55  37  49 NE9       29.93S
$$

COZ041-046-047-076>085-087-088-262100-
...PIKES PEAK/PALMER DIVIDE AND SOUTHERN FOOTHILLS...

CITY           SKY/WX    TMP DP  RH WIND       PRES   REMARKS
COLO. SPRINGS  PTSUNNY   53  31  42 N20       29.90R
A. F. ACADEMY  PTSUNNY   46  32  57 N16G24    29.91R
SCHRIEVER AFB  FAIR      49  33  53 N21G28    29.90R
ELLICOTT         N/A    N/A N/A N/A NE20G29   29.88R
FALCON         PTSUNNY   49  32  52 N13G22    29.93R
FORT CARSON    FAIR      53  32  44 N26G35    29.87R
LIMON          LGT RAIN  45  37  73 N17       29.89R
MONUMENT HILL  CLOUDY    41  32  70 NE8       29.94R
TRINIDAD       CLOUDY    51  36  56 NW21G35   29.88R
$$

COZ042>045-048>051-090-091-262100-
...NORTHEAST COLORADO...

CITY           SKY/WX    TMP DP  RH WIND       PRES   REMARKS
GREELEY ARPT   CLOUDY    52  37  56 NE16      29.92R
AKRON          CLOUDY    51  35  54 N10       29.89S
BURLINGTON     CLOUDY    47  41  80 N17       29.86S
WRAY           NOT AVBL
STERLING       CLOUDY    50  39  66 NE6       29.88S
HOLYOKE        FAIR      54  37  54 N15       29.88F
FORT MORGAN    CLOUDY    50  32  49 CALM      29.91S
$$

COZ086-089-092>099-262100-
...SOUTHEAST COLORADO...

CITY           SKY/WX    TMP DP  RH WIND       PRES   REMARKS
PUEBLO         FAIR      60  34  37 NE23G30   29.86R
LA JUNTA       CLOUDY    47  38  71 N14       29.86R
LAMAR          CLOUDY    42  37  82 N7        29.83S
SPRINGFIELD      N/A     46  36  68 N20       29.82R
$$




USA.gov is the U.S. government's official web portal to all federal, state and local government web resources and services.